Starlink 11523

operational
NORAD ID: 62565 Int'l Des: 2025-006 Owner: SPXS Country: US Constellation: starlink
LEOCIRCULAR

Starlink 11523について

説明を読み込み中...

リアルタイム位置

3D地球を読み込み中...

次回通過

高度履歴

Altitude vs Time

uPlot chart will show altitude changes over time

軌道要素

1 62565U 25006M 25350.22971632 .00186010 00000-0 14173-2 0 9998
2 62565 42.9998 283.2010 0001105 280.4671 79.6072 15.70900951 53475
Epoch: Dec 16, 2025 • Age: 29 hours

現在のステータス

高度 358.7 km
速度 7.70 km/s
衛星直下点 -19.07°S, 12.3°E
打ち上げ日 Jan 10, 2025
運用期間 0.9 years
タイプ internet

技術仕様

分類 Payload
質量 960.00 kg
乾燥質量 910.00 kg
総質量 960.00 kg
長さ 0.30 m
直径 4.10 m
スパン 29.00 m
形状 Box + pan
製造者 SPXS
バスタイプ Starlink V2MD
フェーズステータス In Orbit
所有者/国 SPXS/US

大規模コンステレーション

Loading constellations...